Weather in Cayo Guillermo

Cuba     22°35′27″N   78°39′42″W
temp.,
°C
wind,
m/s
gust,
m/s
humid.,
%
clouds,
%
prec.,
mm/h
press.,
hPa
HPBL,
m
15 june, tue
tue1523:00+28ese5679100 0.0 1017423
02:00+27se5681100 1.5 1016313
05:00+27sse3483100 0.3 1016265
08:00+27se4580100 0.3 1017485
11:00+28ese4576100 0.0 1018679
14:00+29e5673100 0.0 1017571
17:00+29ene667877 0.6 1015379
20:00+28e6679100 1.8 1016439
16 june, wed
wed1623:00+28e6681100 0.6 1017455
02:00+27ese4582100 3.6 1016380
05:00+27se3381100 3.7 1015190
08:00+27ese4480100 5.0 1016437
11:00+28ese4477100 0.1 1017606
14:00+28e44769 0.4 1016476
17:00+28ene6579100 0.6 1014458
20:00+28e6579100 3.8 1015450
17 june, thu
thu1723:00+28e6678100 1.1 1016486
02:00+27ese4580100 2.8 1015317
05:00+27se4581100 0.9 1014240
08:00+27se458298 1.4 1016415
11:00+28ese457696 0.0 1016673
14:00+29ene557392 0.0 1015544
17:00+29ene6674100 0.0 1014486
20:00+28ene787962 0.0 1016509
18 june, fri
fri1823:00+28e7879100 0.0 1017761
02:00+28e7877100 0.0 1016863
05:00+28ese787966 0.1 1015879
08:00+28ese6775100 0.1 1016918
11:00+28e7776100 0.3 1017791
14:00+29e787595 0.4 1016795
17:00+29e887842 0.1 1015697
20:00+28e8982100 0.1 1016678
19 june, sat
sat1923:00+28e8981100 0.0 1017881
02:00+28e7878100 0.1 1017902
05:00+28e7769100 0.1 10161134
08:00+28ese7875100 0.1 1017941
11:00+28e787496 0.1 1018830
14:00+29e6876100 0.1 1017886
17:00+29e887892 0.0 1016606
20:00+28e8983100 0.0 1017579